Weather in Arpachin

Russia / Rostov Oblast     47°13′23″N   40°10′45″E
temp.,
°C
wind,
m/s
gust,
m/s
humid.,
%
clouds,
%
prec.,
mm/h
press.,
hPa
HPBL,
m
8 march, mon
mon800:000sw714660 0.0 1019753
03:000wsw714650 0.0 1018720
06:00−1sw614770 0.0 1016598
09:00+2wsw913713 0.0 1016972
12:00+5wsw9125942 0.0 10161499
15:00+5wsw8125948 0.0 10141524
18:00+2sw51274100 0.0 1014418
21:00+1sw6147159 0.0 1014526
9 march, tue
tue900:00+2sw7148294 0.0 1013705
03:00+2wsw6119797 0.6 1013578
06:00+1w5894100 0.2 1013555
09:00+1wnw5882100 0.3 1014782
12:00+3wnw6852100 0.1 10151792
15:00+4wnw685093 0.1 10161731
18:00+2wnw595894 0.1 1017666
21:000wnw496665 0.1 1019624
10 march, wed
wed1000:00−1nw466720 0.0 1020817
03:00−2nw466359 0.0 10221062
06:00−2nw466080 0.0 10231085
09:00−2nnw555488 0.0 10251072
12:00−1nnw443710 0.0 10261395
15:000nnw443422 0.0 10251401
18:00−2nne354799 0.0 1025276
21:00−3ne365599 0.0 1026339
11 march, thu
thu1100:00−3ne365284 0.0 1026534
03:00−4ne464881 0.0 1027751
06:00−5ne574479 0.0 1027659
09:00−4ene674250 0.0 1029906
12:00−3ene67400 0.0 10291142
15:00−3ne67310 0.0 10281226
18:00−5ene68330 0.0 10281187
21:00−7ene69370 0.0 10301046
12 march, fri
fri1200:00−8ene79380 0.0 1031885
03:00−9ene69400 0.0 1031816
06:00−9ene684517 0.0 1032777
09:00−8ene67419 0.0 1034757
12:00−5e56300 0.0 1033948
15:00−3e56230 0.0 10321187
18:00−4e46250 0.0 1032956
21:00−5e37290 0.0 1034431